Weather History for KS25 - February, 2013

Change the Weather History Date:

Saturday, February 9, 2013

  Actual Average (KISN) Record (KISN)
Temperature  
Mean Temperature 20 °F 15 °F  
Max Temperature 32 °F 26 °F 49 °F (1984)
Min Temperature 8 °F 4 °F -36 °F (1900)
Degree Days  
Heating Degree Days 45 50  
Month to date heating degree days 460  
Since 1 July heating degree days 5881  
Cooling Degree Days 0 0  
Month to date cooling degree days 0  
Year to date cooling degree days 0  
Moisture  
Dew Point 16 °F    
Average Humidity 93    
Maximum Humidity 100    
Minimum Humidity 80    
Precipitation  
Precipitation 0.00 in 0.01 in 0.68 in (2009)
Month to date precipitation 0.11  
Year to date precipitation 0.70  
Sea Level Pressure  
Sea Level Pressure 29.83 in    
Wind  
Wind Speed 3 mph (SW)    
Max Wind Speed 7 mph    
Max Gust Speed -    
Visibility 5 miles    
Events Fog , Snow    
T = Trace of Precipitation, MM = Missing Value Source: NWS Daily Summary

Daily Weather History Graph

Daily Weather History Graph

Search for Another Location

Airport or City:

Trip Planner

Search our weather history database for the weather conditions in past years. The results will help you decide how hot, cold, wet, or windy it might be!

Date:

Astronomy

Feb. 09, 2013 Rise Set
Actual Time 8:08 AM CST 6:06 PM CST
Civil Twilight 7:35 AM CST 6:39 PM CST
Nautical Twilight 6:59 AM CST 7:15 PM CST
Astronomical Twilight 6:23 AM CST 7:51 PM CST
Moon 7:20 AM CST (2/9) 5:55 PM CST (2/9)
Length of Visible Light 11h 03m
Length of Day
9h 58m
Waning Crescent, 0% of the Moon is Illuminated
Feb 9
Waning Crescent
Feb 10
New
Feb 17
First Quarter
Feb 25
Full
Mar 4
Last Quarter

Hourly Weather History & Observations

Time (CST) Temp. Windchill Dew Point Humidity Pressure Visibility Wind Dir Wind Speed Gust Speed Precip Events Conditions
12:15 AM 15.8 °F - 14.0 °F 93% 29.87 in 0.2 mi Calm Calm - N/A Fog Light Freezing Fog
12:35 AM 14.0 °F - 14.0 °F 100% 29.87 in 0.2 mi Calm Calm - N/A Fog Light Freezing Fog
12:55 AM 14.0 °F 8.2 °F 12.2 °F 93% 29.88 in 0.5 mi SW 3.5 mph - N/A Fog Light Freezing Fog
1:15 AM 14.0 °F 8.2 °F 12.2 °F 93% 29.88 in 4.0 mi SSW 3.5 mph - N/A   Partly Cloudy
1:35 AM 12.2 °F - 10.4 °F 92% 29.88 in 7.0 mi Calm Calm - N/A   Clear
1:55 AM 12.2 °F 6.1 °F 10.4 °F 92% 29.88 in 5.0 mi WSW 3.5 mph - N/A   Partly Cloudy
2:15 AM 10.4 °F 4.0 °F 8.6 °F 92% 29.88 in 0.5 mi SW 3.5 mph - N/A Fog Light Freezing Fog
2:35 AM 10.4 °F 0.8 °F 8.6 °F 92% 29.88 in 0.8 mi SW 5.8 mph - N/A   Mostly Cloudy
2:55 AM 10.4 °F 0.8 °F 8.6 °F 92% 29.88 in 5.0 mi SW 5.8 mph - N/A   Clear
3:15 AM 10.4 °F 0.8 °F 8.6 °F 92% 29.88 in 5.0 mi SW 5.8 mph - N/A   Clear
3:35 AM 10.4 °F 2.2 °F 8.6 °F 92% 29.88 in 4.0 mi WSW 4.6 mph - N/A   Clear
3:55 AM 10.4 °F 4.0 °F 6.8 °F 85% 29.87 in 0.5 mi WSW 3.5 mph - N/A Fog Light Freezing Fog
4:15 AM 8.6 °F 0.1 °F 6.8 °F 92% 29.87 in 2.5 mi SW 4.6 mph - N/A   Mostly Cloudy
4:35 AM 12.2 °F 2.9 °F 10.4 °F 92% 29.87 in 0.2 mi SW 5.8 mph - N/A Fog Light Freezing Fog
4:55 AM 12.2 °F 6.1 °F 10.4 °F 92% 29.88 in 0.2 mi SW 3.5 mph - N/A Fog Light Freezing Fog
5:15 AM 10.4 °F 2.2 °F 8.6 °F 92% 29.88 in 0.2 mi SW 4.6 mph - N/A Fog Light Freezing Fog
5:35 AM 10.4 °F - 8.6 °F 92% 29.87 in 0.2 mi Calm Calm - N/A Fog Light Freezing Fog
5:55 AM 10.4 °F - 8.6 °F 92% 29.86 in 0.2 mi Calm Calm - N/A Fog Light Freezing Fog
6:15 AM 10.4 °F 4.0 °F 8.6 °F 92% 29.86 in 0.2 mi SW 3.5 mph - N/A Fog Light Freezing Fog
6:35 AM 10.4 °F -0.4 °F 8.6 °F 92% 29.87 in 0.2 mi SW 6.9 mph - N/A Fog Light Freezing Fog
6:55 AM 10.4 °F 0.8 °F 8.6 °F 92% 29.86 in 0.2 mi SW 5.8 mph - N/A Fog Light Freezing Fog
7:15 AM 10.4 °F 0.8 °F 8.6 °F 92% 29.86 in 0.2 mi SW 5.8 mph - N/A Fog Light Freezing Fog
7:35 AM 8.6 °F 0.1 °F 6.8 °F 92% 29.87 in 0.8 mi SW 4.6 mph - N/A   Overcast
7:55 AM 10.4 °F - 6.8 °F 85% 29.86 in 0.2 mi Calm Calm - N/A Fog Light Freezing Fog
8:15 AM 10.4 °F 2.2 °F 6.8 °F 85% 29.86 in 0.2 mi SW 4.6 mph - N/A Fog Light Freezing Fog
8:35 AM 10.4 °F 2.2 °F 6.8 °F 85% 29.86 in 0.2 mi SSW 4.6 mph - N/A Fog Light Freezing Fog
8:55 AM 10.4 °F - 6.8 °F 85% 29.86 in 0.2 mi Calm Calm - N/A Fog Light Freezing Fog
9:15 AM 10.4 °F 4.0 °F 8.6 °F 92% 29.86 in 0.2 mi WSW 3.5 mph - N/A Fog Light Freezing Fog
9:35 AM 10.4 °F 4.0 °F 8.6 °F 92% 29.87 in 0.2 mi WSW 3.5 mph - N/A Fog Light Freezing Fog
9:55 AM 12.2 °F 4.3 °F 10.4 °F 92% 29.86 in 0.2 mi WSW 4.6 mph - N/A Fog Light Freezing Fog
10:15 AM 14.0 °F 6.5 °F 10.4 °F 86% 29.86 in 0.2 mi SW 4.6 mph - N/A Fog Light Freezing Fog
10:35 AM 14.0 °F 5.1 °F 12.2 °F 93% 29.86 in 0.8 mi SSW 5.8 mph - N/A   Overcast
10:55 AM 15.8 °F 7.2 °F 14.0 °F 93% 29.85 in 3.0 mi SW 5.8 mph - N/A   Overcast
11:15 AM 17.6 °F 9.3 °F 15.8 °F 93% 29.85 in 5.0 mi SW 5.8 mph - N/A   Overcast
11:35 AM 19.4 °F 14.3 °F 17.6 °F 93% 29.85 in 8.0 mi SW 3.5 mph - N/A   Partly Cloudy
11:55 AM 19.4 °F 14.3 °F 19.4 °F 100% 29.85 in 8.0 mi WSW 3.5 mph - N/A   Clear
12:15 PM 21.2 °F 16.4 °F 19.4 °F 93% 29.85 in 7.0 mi SSW 3.5 mph - N/A   Clear
12:35 PM 23.0 °F 15.8 °F 21.2 °F 93% 29.85 in 9.0 mi SW 5.8 mph - N/A   Clear
12:55 PM 24.8 °F 17.9 °F 24.8 °F 100% 29.84 in 10.0 mi SW 5.8 mph - N/A   Clear
1:15 PM 24.8 °F 17.9 °F 24.8 °F 100% 29.83 in 10.0 mi SW 5.8 mph - N/A   Clear
1:35 PM 26.6 °F 19.1 °F 26.6 °F 100% 29.82 in 10.0 mi SW 6.9 mph - N/A   Clear
1:55 PM 26.6 °F 20.0 °F 26.6 °F 100% 29.81 in 10.0 mi WSW 5.8 mph - N/A   Clear
2:15 PM 28.4 °F 23.3 °F 28.4 °F 100% 29.81 in 10.0 mi SW 4.6 mph - N/A   Clear
2:35 PM 28.4 °F 22.2 °F 28.4 °F 100% 29.80 in 10.0 mi SW 5.8 mph - N/A   Clear
2:55 PM 28.4 °F 22.2 °F 28.4 °F 100% 29.80 in 10.0 mi WSW 5.8 mph - N/A   Clear
3:15 PM 30.2 °F 24.3 °F 28.4 °F 93% 29.79 in 10.0 mi West 5.8 mph - N/A   Clear
3:35 PM 30.2 °F 26.7 °F 26.6 °F 86% 29.78 in 10.0 mi SW 3.5 mph - N/A   Clear
3:55 PM 30.2 °F 26.7 °F 26.6 °F 86% 29.78 in 10.0 mi SW 3.5 mph - N/A   Clear
4:15 PM 30.2 °F 26.7 °F 26.6 °F 86% 29.77 in 10.0 mi SSW 3.5 mph - N/A   Clear
4:35 PM 30.2 °F - 26.6 °F 86% 29.77 in 10.0 mi Calm Calm - N/A   Clear
4:55 PM 32.0 °F - 26.6 °F 80% 29.76 in 10.0 mi Calm Calm - N/A   Clear
5:15 PM 28.4 °F - 24.8 °F 86% 29.76 in 10.0 mi Calm Calm - N/A   Clear
5:35 PM 28.4 °F - 24.8 °F 86% 29.76 in 10.0 mi Calm Calm - N/A   Clear
5:55 PM 26.6 °F - 24.8 °F 93% 29.77 in 10.0 mi Calm Calm - N/A   Clear
6:15 PM 23.0 °F - 19.4 °F 86% 29.78 in 10.0 mi Calm Calm - N/A   Clear
6:35 PM 19.4 °F - 17.6 °F 93% 29.79 in 10.0 mi Calm Calm - N/A   Clear
6:55 PM 21.2 °F - 19.4 °F 93% 29.79 in 5.0 mi Calm Calm - N/A   Clear
7:15 PM 19.4 °F - 19.4 °F 100% 29.79 in 9.0 mi Calm Calm - N/A   Clear
7:35 PM 19.4 °F - 19.4 °F 100% 29.79 in 2.5 mi North - - N/A   Clear
7:55 PM 19.4 °F - 17.6 °F 93% 29.79 in 10.0 mi Calm Calm - N/A   Clear
8:15 PM 17.6 °F - 17.6 °F 100% 29.79 in 7.0 mi Calm Calm - N/A   Clear
8:35 PM 17.6 °F - 17.6 °F 100% 29.78 in 5.0 mi Calm Calm - N/A   Clear
8:55 PM 15.8 °F - 14.0 °F 93% 29.78 in 3.0 mi Calm Calm - N/A   Clear
9:35 PM 15.8 °F - 14.0 °F 93% 29.78 in 5.0 mi Calm Calm - N/A   Clear
9:55 PM 14.0 °F - 14.0 °F 100% 29.79 in 0.8 mi Calm Calm - N/A   Mist
10:15 PM 15.8 °F - 15.8 °F 100% 29.79 in 10.0 mi Calm Calm - N/A   Clear
10:35 PM 15.8 °F 8.6 °F 14.0 °F 93% 29.78 in 9.0 mi SSW 4.6 mph - N/A Snow Light Snow
10:55 PM 15.8 °F 10.2 °F 14.0 °F 93% 29.79 in 8.0 mi WSW 3.5 mph - N/A   Clear
11:15 PM 15.8 °F 10.2 °F 14.0 °F 93% 29.79 in 8.0 mi South 3.5 mph - N/A   Mostly Cloudy
11:35 PM 17.6 °F 12.3 °F 15.8 °F 93% 29.79 in 10.0 mi SW 3.5 mph - N/A   Overcast
11:55 PM 19.4 °F 14.3 °F 17.6 °F 93% 29.79 in 10.0 mi SW 3.5 mph - N/A   Overcast